Regional Weather Roundup
Issued by NWS

Home | Current Version | Previous Version | Graphics & Text | Print | Product List | Glossary On
Versions: 1 2 3 4 5 6 7 8 9 10 11 12 13 14 15 16 17 18 19 20 21 22 23 24 25 26 27 28 29 30 31 32 33 34 35 36 37 38 39 40 41 42 43 44 45 46 47 48 49 50
000
ASUS44 KMEG 290810
RWRTN
TENNESSEE HOURLY STATE WEATHER ROUNDUP
NATIONAL WEATHER SERVICE MEMPHIS TN
300 AM CDT SAT AUG 29 2015

TNZ002-004-019-021-049-052-054-088>092-290900-
WEST TENNESSEE

CITY           SKY/WX    TMP DP  RH WIND       PRES   REMARKS
MEMPHIS INTL   PTCLDY    73  66  78 S8        30.02S
NWS MEMPHIS      N/A     68 N/A N/A MISG        N/A
JACKSON        PTCLDY    72  66  81 S5        30.05R
DYERSBURG      CLOUDY   N/A N/A N/A MISG        N/A
UNION CITY     CLEAR     70  68  94 CALM      30.03R
PARIS          CLEAR     68  64  88 S6        30.06S
LEXINGTON      CLEAR     66  66 100 SE3       30.05S
$$

TNZ008-025-027-028-033-062-065-066-290900-
NORTH MIDDLE TENNESSEE

CITY           SKY/WX    TMP DP  RH WIND       PRES   REMARKS
NASHVILLE      CLEAR     71  65  81 S3        30.10S
CLARKSVILLE    PTCLDY    68  64  87 SE5       30.07S
SMYRNA         CLEAR     67  65  93 CALM      30.11S
COOKEVILLE     PTCLDY    64  64 100 CALM      30.13S
CROSSVILLE     MOCLDY    69  62  78 CALM      30.19S
$$

TNZ061-075-076-078-094-096-097-290900-
SOUTH MIDDLE TENNESSEE

CITY           SKY/WX    TMP DP  RH WIND       PRES   REMARKS
FAYETTEVILLE     N/A     70  64  83 CALM      30.12S
TULLAHOMA      MOCLDY    70  64  83 SE5       30.14S
WINCHESTER     MOCLDY    72  66  83 E7        30.13R
MCMINNVILLE    CLEAR     66  66 100 CALM      30.13S
COLUMBIA       CLEAR     73  73 100 S3        30.08S
SHELBYVILLE    CLEAR     72  68  88 SE5       30.12S
$$

TNZ017-018-042-046-047-290900-
NORTHEAST TENNESSEE

CITY           SKY/WX    TMP DP  RH WIND       PRES   REMARKS
TRI CITIES     MOCLDY    62  59  90 CALM      30.20R
ELIZABETHTON   SUNNY     59  55  88 CALM      30.21S
$$

TNZ012-013-036-069-073-074-290900-
CENTRAL EAST TENNESSEE

CITY           SKY/WX    TMP DP  RH WIND       PRES   REMARKS
KNOXVILLE      CLOUDY    69  66  90 CALM      30.15R
OAK RIDGE      MOCLDY    68  65  90 CALM      30.17S
GATLINBURG     SUNNY     63  61  94 CALM      30.15S
MORRISTOWN     SUNNY     64  61  88 CALM      30.18S
$$

TNZ083-085-099-290900-
SOUTHEAST TENNESSEE

CITY           SKY/WX    TMP DP  RH WIND       PRES   REMARKS
CHATTANOOGA    PTCLDY    69  65  86 CALM      30.14S
$$

SKY/WX REPORTED AS FAIR MEANS FEW OR NO CLOUDS BELOW
12 THOUSAND FEET.



USA.gov is the U.S. government's official web portal to all federal, state and local government web resources and services.